Pottstown, PA

3:34 AM EDT on April 20, 2018 (GMT -0400)
Pottstown Limerick

Weather History for KPTW - October, 2012

Change the Weather History Date:

Friday, October 5, 2012

  Actual Average (KRDG) Record (KRDG)
Temperature  
Mean Temperature 66 °F -  
Max Temperature 79 °F 65 °F 94 °F (1941)
Min Temperature 53 °F 45 °F 31 °F (1974)
Cooling Degree Days 1    
Growing Degree Days 16 (Base 50)    
Moisture  
Dew Point 56 °F    
Average Humidity 86    
Maximum Humidity 100    
Minimum Humidity 48    
Precipitation  
Precipitation 0.01 in - - ()
Sea Level Pressure  
Sea Level Pressure 30.07 in    
Wind  
Wind Speed 1 mph (WSW)    
Max Wind Speed 8 mph    
Max Gust Speed -    
Visibility 5 miles    
Events Fog    
Averages and records for this station are not official NWS values.
T = Trace of Precipitation, MM = Missing Value Source: NWS Daily Summary

Daily Weather History Graph

Daily Weather History Graph

Search for Another Location

Airport or City:

Astronomy

Oct. 05, 2012 Rise Set
Actual Time 7:03 AM EDT 6:37 PM EDT
Civil Twilight 6:35 AM EDT 7:04 PM EDT
Nautical Twilight 6:04 AM EDT 7:35 PM EDT
Astronomical Twilight 5:32 AM EDT 8:07 PM EDT
Moon 9:58 PM EDT (10/5) 12:09 PM EDT (10/5)
Length of Visible Light 12h 28m
Length of Day
11h 34m
Waning Gibbous, 74% of the Moon is Illuminated
Oct 5
Waning Gibbous
Oct 8
Last Quarter
Oct 15
New
Oct 21
First Quarter
Oct 29
Full

Hourly Weather History & Observations

Time (EDT) Temp. Dew Point Humidity Pressure Visibility Wind Dir Wind Speed Gust Speed Precip Events Conditions
12:13 AM 57.2 °F 57.2 °F 100% 30.10 in 0.5 mi Calm Calm - N/A Fog Fog
12:54 AM 57.0 °F 57.0 °F 100% 30.09 in 0.5 mi Calm Calm - N/A Fog Fog
1:02 AM 57.2 °F 57.2 °F 100% 30.10 in 2.0 mi Calm Calm - N/A   Clear
1:21 AM 57.2 °F 57.2 °F 100% 30.11 in 4.0 mi Calm Calm - N/A   Clear
1:32 AM 55.4 °F 55.4 °F 100% 30.11 in 2.0 mi Calm Calm - N/A   Clear
1:54 AM 57.9 °F 57.0 °F 97% 30.10 in 4.0 mi Calm Calm - N/A   Clear
2:11 AM 57.2 °F 57.2 °F 100% 30.11 in 1.8 mi Calm Calm - N/A   Clear
2:20 AM 59.0 °F 57.2 °F 94% 30.11 in 3.0 mi Calm Calm - N/A   Clear
2:26 AM 57.2 °F 57.2 °F 100% 30.11 in 1.5 mi Calm Calm - N/A   Clear
2:33 AM 57.2 °F 57.2 °F 100% 30.10 in 0.2 mi Calm Calm - N/A Fog Fog
2:50 AM 55.4 °F 55.4 °F 100% 30.10 in 0.2 mi Calm Calm - N/A Fog Fog
2:54 AM 55.9 °F 55.9 °F 100% 30.09 in 0.2 mi Calm Calm - N/A Fog Fog
3:01 AM 57.2 °F 55.4 °F 94% 30.10 in 1.0 mi Calm Calm - N/A   Clear
3:08 AM 55.4 °F 55.4 °F 100% 30.10 in 0.8 mi Calm Calm - N/A   Clear
3:16 AM 57.2 °F 55.4 °F 94% 30.10 in 2.0 mi Calm Calm - N/A   Clear
3:31 AM 57.2 °F 55.4 °F 94% 30.10 in 4.0 mi Calm Calm - N/A   Clear
3:54 AM 57.9 °F 55.9 °F 93% 30.09 in 5.0 mi Calm Calm - N/A   Clear
4:54 AM 55.9 °F 55.0 °F 97% 30.10 in 6.0 mi Calm Calm - 0.01 in   Clear
5:54 AM 54.0 °F 53.1 °F 97% 30.10 in 2.5 mi Calm Calm - N/A   Clear
6:02 AM 53.6 °F 53.6 °F 100% 30.11 in 4.0 mi Calm Calm - N/A   Clear
6:34 AM 53.6 °F 53.6 °F 100% 30.11 in 2.5 mi Calm Calm - N/A   Clear
6:43 AM 53.6 °F 51.8 °F 94% 30.11 in 4.0 mi Calm Calm - N/A   Clear
6:54 AM 53.1 °F 52.0 °F 96% 30.11 in 3.0 mi Calm Calm - N/A   Clear
7:01 AM 53.6 °F 51.8 °F 94% 30.11 in 2.5 mi Calm Calm - N/A   Clear
7:26 AM 53.6 °F 51.8 °F 94% 30.11 in 2.5 mi Calm Calm - N/A   Clear
7:54 AM 55.9 °F 55.0 °F 97% 30.11 in 4.0 mi Calm Calm - N/A   Clear
8:54 AM 63.0 °F 57.9 °F 84% 30.11 in 8.0 mi Calm Calm - N/A   Clear
9:54 AM 66.0 °F 57.9 °F 75% 30.11 in - North - - N/A   Unknown
10:54 AM 70.0 °F 57.9 °F 65% 30.10 in 10.0 mi WSW 5.8 mph - N/A   Unknown
11:54 AM 73.9 °F 59.0 °F 59% 30.08 in 10.0 mi Variable 3.5 mph - N/A   Clear
12:54 PM 75.9 °F 59.0 °F 56% 30.06 in 10.0 mi WNW 8.1 mph - N/A   Clear
1:54 PM 77.0 °F 57.9 °F 52% 30.02 in 10.0 mi Variable 6.9 mph - N/A   Clear
2:54 PM 77.0 °F 57.0 °F 50% 30.01 in 10.0 mi WNW 5.8 mph - N/A   Partly Cloudy
3:54 PM 79.0 °F 57.9 °F 48% 29.99 in 10.0 mi Variable 3.5 mph - N/A   Scattered Clouds
4:54 PM 78.1 °F 57.0 °F 48% 29.99 in 10.0 mi SW 5.8 mph - N/A   Clear
5:54 PM 75.9 °F 57.9 °F 54% 29.99 in 10.0 mi SW 3.5 mph - N/A   Clear
6:54 PM 72.0 °F 60.1 °F 66% 29.99 in 10.0 mi Calm Calm - N/A   Clear
7:54 PM 66.0 °F 60.1 °F 81% 29.99 in 9.0 mi Calm Calm - N/A   Clear
8:54 PM 64.0 °F 59.0 °F 84% 29.98 in 8.0 mi Calm Calm - N/A   Clear
9:54 PM 63.0 °F 57.9 °F 84% 29.97 in 8.0 mi Calm Calm - N/A   Clear
10:54 PM 62.1 °F 59.0 °F 90% 29.97 in 8.0 mi Calm Calm - N/A   Clear
11:54 PM 61.0 °F 57.0 °F 87% 29.94 in 8.0 mi Calm Calm - N/A   Clear